Regional Weather Roundup
Issued by NWS Sioux Falls, SD

Home | Current Version | Previous Version | Text Only | Print | Product List | Glossary Off
Versions: 1 2 3 4 5 6 7 8 9 10 11 12 13 14 15 16 17 18 19 20 21 22 23 24 25 26 27 28 29 30 31 32 33 34 35 36 37 38 39 40 41 42 43 44 45 46 47 48 49 50

000
ASUS43 KFSD 271710
RWRFSD

WEATHER ROUNDUP FOR SE SOUTH DAKOTA/SW MINNESOTA/NW IOWA
NATIONAL WEATHER SERVICE SIOUX FALLS SD
1200 PM CDT WED JUL 27 2016

NOTE: "FAIR" INDICATES FEW OR NO CLOUDS BELOW 12,000 FEET WITH NO
SIGNIFICANT WEATHER AND OR OBSTRUCTIONS TO VISIBILITY.


SDZ038>040-050-052>070-271800-
SOUTHEAST SOUTH DAKOTA

CITY           SKY/WX    TMP DP  RH WIND       PRES   REMARKS
BROOKINGS      PTSUNNY   74  65  73 N12       30.03R
CHAMBERLAIN    SUNNY     81  67  61 NE7       30.03S
HURON          MOSUNNY   78  65  63 N15       30.04R
MADISON        FAIR      73  70  88 NE10      30.05R
MITCHELL       MOSUNNY   81  68  64 N12       30.03R
SIOUX FALLS    PTSUNNY   82  69  64 W9        30.02R
WINNER         FAIR      84  66  54 N5        30.05S
YANKTON        SUNNY     81  61  50 W8        30.00F
$$

MNZ071-072-080-081-089-090-097-098-271800-
SOUTHWEST MINNESOTA

CITY           SKY/WX    TMP DP  RH WIND       PRES   REMARKS
FAIRMONT       CLOUDY    75  66  73 S17       29.97F
JACKSON        CLOUDY    77  64  65 SW9       30.01R
LUVERNE        PTSUNNY   77  64  65 W3        30.01F
MARSHALL       PTSUNNY   75  66  73 N10       30.01R
MONTEVIDEO     PTSUNNY   77  66  69 N10G16    30.02R
REDWOOD FALLS  PTSUNNY   78  67  68 NW8       29.98R
TRACY          CLOUDY    75  68  79 NW7       30.01S
WINDOM         PTSUNNY   79  66  65 W8        30.00R
WORTHINGTON    CLOUDY    77  68  73 NW8       30.02R
$$

IAZ001>003-012>014-020>022-031-032-NEZ013-014-SDZ071-271800-
NORTHWEST IOWA

CITY           SKY/WX    TMP DP  RH WIND       PRES   REMARKS
CHEROKEE       CLOUDY    80  73  78 SW9       30.00S
DENISON        HVY RAIN  68  68 100 CALM      30.01S VSB 3/4
ESTHERVILLE    CLOUDY    75  69  81 S14       29.99S
LE MARS        SUNNY     84  68  58 W3        30.01S
SHELDON        CLOUDY    81  72  74 SW10G17   30.00R
SIOUX CITY     SUNNY     82  68  62 CALM      30.00S
SPENCER        MOSUNNY   80  68  66 SW9       29.99F
STORM LAKE     CLOUDY    77  70  78 SW10      30.03R
$$

ABBREVIATIONS USED IN REMARKS
   TC - TEMPERATURE IN CELSIUS
  WCI - WIND CHILL INDEX
   HX - HEAT INDEX
  VSB - VISIBILITY





USA.gov is the U.S. government's official web portal to all federal, state and local government web resources and services.